To NAV CANADA Home Page Login to a new session Search on AWWS site Feedback and Comments Disclaimer Vers la page française équivalente Tips FAQ What's new on the site To the Forecasts and Observations / NOTAM section To "File a Flight Plan" website Publications and other links Update of the User's profile FIC Telephone Numbers My Weather Data Folder Route Weather Data Regional Weather Data Local Weather Data To the Forecasts and Observations / NOTAM section
Request Generated 03/23/2017 at 00:12:29 UTC . Weather information available at that time is displayed.

METAR/TAF

WHALE COVE/NU    

LWIS CYXN 230000Z AUTO 29005KT M23/M26 A3009=
LWIS CYXN 222300Z AUTO 30003KT M22/M26 A3010=
METAR CYXN 222200Z 30007KT 15SM BKN230 M23/M26 A3012 RMK CI6
-22.5/-30.5/0.0MM/LAST OBS/NEXT 231200Z SLP202=

CYXN - No TAF is issued for this station

Your time UTC time
Weather data provided by Environment Canada and NAV CANADA